| time (UTC) | temp C | wind direction | speed KPH | gust KPH | rain 1hr cm | rain 24hr cm | rain mn cm | humidity % | barometer mb |
| 20260504012345 | 10 | 256 | 0.0 | 0.0 | 0.00 | 0.00 | 0.00 | 80 | 1014.2 |
| 20260504011843 | 11 | 256 | 0.0 | 0.0 | 0.00 | 0.00 | 0.00 | 79 | 1014.0 |
| 20260504011339 | 11 | 256 | 0.0 | 0.0 | 0.00 | 0.00 | 0.00 | 76 | 1013.9 |
| 20260504010835 | 11 | 256 | 0.0 | 0.0 | 0.00 | 0.00 | 0.00 | 72 | 1013.7 |
| 20260504010331 | 12 | 256 | 0.0 | 0.0 | 0.00 | 0.00 | 0.00 | 69 | 1013.8 |
| 20260504005827 | 12 | 256 | 0.0 | 0.0 | 0.00 | 0.00 | 0.00 | 67 | 1013.7 |
| 20260504005324 | 12 | 256 | 0.0 | 0.0 | 0.00 | 0.00 | 0.00 | 65 | 1013.7 |
| 20260504004822 | 12 | 257 | 0.0 | 0.0 | 0.00 | 0.00 | 0.00 | 64 | 1013.4 |
| 20260504004319 | 13 | 256 | 0.0 | 0.0 | 0.00 | 0.00 | 0.00 | 57 | 1013.4 |
| 20260504003815 | 13 | 225 | 0.0 | 0.0 | 0.00 | 0.00 | 0.00 | 57 | 1013.5 |
| 20260504003313 | 13 | 215 | 0.0 | 0.0 | 0.00 | 0.00 | 0.00 | 55 | 1013.4 |
| 20260504002809 | 13 | 232 | 0.0 | 0.0 | 0.00 | 0.00 | 0.00 | 55 | 1013.3 |
| 20260504002306 | 14 | 223 | 1.6 | 1.6 | 0.00 | 0.00 | 0.00 | 55 | 1013.1 |
| 20260504001804 | 15 | 252 | 3.2 | 3.2 | 0.00 | 0.00 | 0.00 | 53 | 1013.1 |
| 20260504001301 | 15 | 235 | 1.6 | 1.6 | 0.00 | 0.00 | 0.00 | 52 | 1013.0 |
| 20260504000758 | 15 | 230 | 3.2 | 3.2 | 0.00 | 0.00 | 0.00 | 49 | 1013.1 |
| 20260504000254 | 15 | 239 | 3.2 | 3.2 | 0.00 | 0.00 | 0.00 | 50 | 1013.0 |
| 20260503235752 | 15 | 230 | 4.8 | 4.8 | 0.00 | 0.00 | 0.00 | 48 | 1013.1 |
| 20260503235250 | 16 | 233 | 4.8 | 4.8 | 0.00 | 0.00 | 0.00 | 47 | 1013.4 |
| 20260503234747 | 16 | 236 | 3.2 | 3.2 | 0.00 | 0.00 | 0.00 | 46 | 1013.2 |
| 20260503234245 | 16 | 235 | 3.2 | 3.2 | 0.00 | 0.00 | 0.00 | 47 | 1013.2 |
| 20260503233742 | 16 | 186 | 6.4 | 8.0 | 0.00 | 0.00 | 0.00 | 46 | 1013.3 |
| 20260503233238 | 16 | 224 | 4.8 | 4.8 | 0.00 | 0.00 | 0.00 | 45 | 1013.2 |
| 20260503232735 | 16 | 250 | 1.6 | 3.2 | 0.00 | 0.00 | 0.00 | 48 | 1013.3 |
| 20260503232232 | 16 | 221 | 6.4 | 8.0 | 0.00 | 0.00 | 0.00 | 43 | 1013.2 |
| 20260503231730 | 16 | 234 | 4.8 | 4.8 | 0.00 | 0.00 | 0.00 | 45 | 1013.3 |
| 20260503231226 | 16 | 232 | 3.2 | 3.2 | 0.00 | 0.00 | 0.00 | 44 | 1013.8 |
| 20260503230723 | 17 | 224 | 8.0 | 9.7 | 0.00 | 0.00 | 0.00 | 42 | 1013.7 |
| 20260503230220 | 17 | 232 | 9.7 | 11.3 | 0.00 | 0.00 | 0.00 | 41 | 1013.7 |
| 20260503225718 | 16 | 223 | 4.8 | 8.0 | 0.00 | 0.00 | 0.00 | 42 | 1014.0 |
| 20260503225217 | 16 | 252 | 8.0 | 11.3 | 0.00 | 0.00 | 0.00 | 42 | 1014.2 |
| 20260503224715 | 16 | 191 | 11.3 | 12.9 | 0.00 | 0.00 | 0.00 | 42 | 1014.2 |
| 20260503224213 | 16 | 242 | 11.3 | 12.9 | 0.00 | 0.00 | 0.00 | 43 | 1014.4 |
| 20260503223710 | 16 | 207 | 12.9 | 14.5 | 0.00 | 0.00 | 0.00 | 42 | 1014.3 |
| 20260503223207 | 16 | 269 | 9.7 | 11.3 | 0.00 | 0.00 | 0.00 | 43 | 1014.6 |
| 20260503222704 | 16 | 191 | 8.0 | 9.7 | 0.00 | 0.00 | 0.00 | 44 | 1014.5 |
| 20260503222202 | 16 | 259 | 4.8 | 4.8 | 0.00 | 0.00 | 0.00 | 42 | 1014.6 |
| 20260503221700 | 16 | 254 | 6.4 | 8.0 | 0.00 | 0.00 | 0.00 | 42 | 1014.6 |
| 20260503221156 | 17 | 239 | 3.2 | 4.8 | 0.00 | 0.00 | 0.00 | 43 | 1014.5 |
| 20260503220653 | 17 | 235 | 6.4 | 9.7 | 0.00 | 0.00 | 0.00 | 42 | 1014.6 |
| 20260503220150 | 17 | 200 | 19.3 | 20.9 | 0.00 | 0.00 | 0.00 | 39 | 1014.8 |
| 20260503215647 | 17 | 218 | 11.3 | 16.1 | 0.00 | 0.00 | 0.00 | 41 | 1014.9 |
| 20260503215144 | 17 | 212 | 4.8 | 4.8 | 0.00 | 0.00 | 0.00 | 41 | 1014.8 |
| 20260503214643 | 17 | 238 | 8.0 | 9.7 | 0.00 | 0.00 | 0.00 | 41 | 1014.8 |
| 20260503214138 | 17 | 223 | 8.0 | 11.3 | 0.00 | 0.00 | 0.00 | 39 | 1015.1 |
| 20260503213632 | 17 | 222 | 4.8 | 4.8 | 0.00 | 0.00 | 0.00 | 42 | 1015.2 |
| 20260503213128 | 17 | 218 | 14.5 | 17.7 | 0.00 | 0.00 | 0.00 | 38 | 1015.1 |
| 20260503212626 | 17 | 213 | 8.0 | 11.3 | 0.00 | 0.00 | 0.00 | 38 | 1015.3 |
| 20260503212123 | 17 | 209 | 16.1 | 17.7 | 0.00 | 0.00 | 0.00 | 38 | 1014.8 |
| 20260503211620 | 17 | 237 | 3.2 | 4.8 | 0.00 | 0.00 | 0.00 | 40 | 1014.7 |
| 20260503211116 | 17 | 223 | 12.9 | 16.1 | 0.00 | 0.00 | 0.00 | 39 | 1014.8 |
| 20260503210612 | 17 | 204 | 6.4 | 8.0 | 0.00 | 0.00 | 0.00 | 43 | 1014.7 |
| 20260503210109 | 17 | 231 | 4.8 | 4.8 | 0.00 | 0.00 | 0.00 | 42 | 1015.1 |
| 20260503205605 | 17 | 229 | 14.5 | 16.1 | 0.00 | 0.00 | 0.00 | 38 | 1015.0 |
| 20260503205101 | 17 | 243 | 4.8 | 8.0 | 0.00 | 0.00 | 0.00 | 41 | 1015.3 |
| 20260503204558 | 17 | 236 | 6.4 | 8.0 | 0.00 | 0.00 | 0.00 | 38 | 1015.3 |
| 20260503204056 | 17 | 214 | 8.0 | 16.1 | 0.00 | 0.00 | 0.00 | 43 | 1015.5 |
| 20260503203553 | 16 | 249 | 14.5 | 16.1 | 0.00 | 0.00 | 0.00 | 37 | 1015.5 |
| 20260503203050 | 16 | 223 | 9.7 | 11.3 | 0.00 | 0.00 | 0.00 | 37 | 1015.5 |
| 20260503202548 | 16 | 274 | 9.7 | 11.3 | 0.00 | 0.00 | 0.00 | 44 | 1015.7 |
| 20260503202045 | 16 | 238 | 11.3 | 14.5 | 0.00 | 0.00 | 0.00 | 40 | 1015.8 |
| 20260503201543 | 16 | 253 | 6.4 | 8.0 | 0.00 | 0.00 | 0.00 | 43 | 1015.8 |
| 20260503201040 | 17 | 220 | 11.3 | 14.5 | 0.00 | 0.00 | 0.00 | 41 | 1015.8 |
| 20260503200536 | 17 | 144 | 8.0 | 11.3 | 0.00 | 0.00 | 0.00 | 40 | 1015.8 |
| 20260503200033 | 17 | 220 | 8.0 | 11.3 | 0.00 | 0.00 | 0.00 | 44 | 1016.1 |
| 20260503195530 | 17 | 187 | 6.4 | 8.0 | 0.00 | 0.00 | 0.00 | 42 | 1016.5 |
| 20260503195027 | 16 | 202 | 6.4 | 9.7 | 0.00 | 0.00 | 0.00 | 45 | 1016.6 |
| 20260503194525 | 16 | 224 | 9.7 | 11.3 | 0.00 | 0.00 | 0.00 | 40 | 1016.7 |
| 20260503194024 | 16 | 249 | 6.4 | 9.7 | 0.00 | 0.00 | 0.00 | 41 | 1016.9 |
| 20260503193521 | 16 | 238 | 6.4 | 8.0 | 0.00 | 0.00 | 0.00 | 42 | 1016.7 |
| 20260503193016 | 16 | 270 | 9.7 | 11.3 | 0.00 | 0.00 | 0.00 | 40 | 1016.8 |
| 20260503192512 | 17 | 235 | 11.3 | 14.5 | 0.00 | 0.00 | 0.00 | 42 | 1016.8 |
| 20260503192008 | 16 | 224 | 6.4 | 9.7 | 0.00 | 0.00 | 0.00 | 44 | 1017.0 |
| 20260503191505 | 16 | 242 | 12.9 | 14.5 | 0.00 | 0.00 | 0.00 | 40 | 1016.9 |
| 20260503191002 | 16 | 246 | 8.0 | 11.3 | 0.00 | 0.00 | 0.00 | 42 | 1017.1 |
| 20260503190459 | 16 | 257 | 8.0 | 9.7 | 0.00 | 0.00 | 0.00 | 40 | 1017.5 |
| 20260503185956 | 16 | 209 | 6.4 | 9.7 | 0.00 | 0.00 | 0.00 | 44 | 1017.3 |
| 20260503185452 | 16 | 255 | 3.2 | 3.2 | 0.00 | 0.00 | 0.00 | 41 | 1017.4 |
| 20260503184952 | 16 | 227 | 8.0 | 8.0 | 0.00 | 0.00 | 0.00 | 41 | 1017.4 |
| 20260503184448 | 16 | 252 | 3.2 | 4.8 | 0.00 | 0.00 | 0.00 | 41 | 1017.8 |
| 20260503183945 | 15 | 255 | 6.4 | 8.0 | 0.00 | 0.00 | 0.00 | 41 | 1017.5 |
| 20260503183441 | 15 | 252 | 9.7 | 12.9 | 0.00 | 0.00 | 0.00 | 44 | 1017.7 |
| 20260503182938 | 15 | 225 | 12.9 | 14.5 | 0.00 | 0.00 | 0.00 | 40 | 1017.5 |
| 20260503182437 | 15 | 226 | 9.7 | 12.9 | 0.00 | 0.00 | 0.00 | 41 | 1018.0 |
| 20260503181934 | 15 | 194 | 11.3 | 11.3 | 0.00 | 0.00 | 0.00 | 39 | 1018.3 |
| 20260503181431 | 15 | 284 | 1.6 | 1.6 | 0.00 | 0.00 | 0.00 | 43 | 1018.0 |
| 20260503180927 | 15 | 189 | 14.5 | 20.9 | 0.00 | 0.00 | 0.00 | 43 | 1018.2 |
| 20260503180427 | 15 | 148 | 4.8 | 8.0 | 0.00 | 0.00 | 0.00 | 44 | 1018.3 |
| 20260503175923 | 15 | 200 | 9.7 | 11.3 | 0.00 | 0.00 | 0.00 | 39 | 1018.5 |
| 20260503175421 | 15 | 221 | 4.8 | 8.0 | 0.00 | 0.00 | 0.00 | 42 | 1018.3 |
| 20260503174916 | 15 | 250 | 4.8 | 4.8 | 0.00 | 0.00 | 0.00 | 42 | 1018.3 |
| 20260503174415 | 15 | 234 | 4.8 | 8.0 | 0.00 | 0.00 | 0.00 | 39 | 1018.5 |
| 20260503173914 | 15 | 198 | 9.7 | 12.9 | 0.00 | 0.00 | 0.00 | 39 | 1018.6 |
| 20260503173411 | 15 | 200 | 4.8 | 4.8 | 0.00 | 0.00 | 0.00 | 40 | 1018.6 |
| 20260503172908 | 15 | 238 | 4.8 | 4.8 | 0.00 | 0.00 | 0.00 | 44 | 1018.6 |
| 20260503172406 | 15 | 137 | 9.7 | 20.9 | 0.00 | 0.00 | 0.00 | 43 | 1018.7 |
| 20260503171901 | 15 | 230 | 8.0 | 12.9 | 0.00 | 0.00 | 0.00 | 44 | 1019.0 |
| 20260503171358 | 14 | 235 | 8.0 | 11.3 | 0.00 | 0.00 | 0.00 | 41 | 1019.0 |
| 20260503170856 | 15 | 252 | 8.0 | 11.3 | 0.00 | 0.00 | 0.00 | 42 | 1019.1 |
| 20260503170352 | 14 | 129 | 4.8 | 4.8 | 0.00 | 0.00 | 0.00 | 43 | 1019.1 |
| 20260503150744 | 12 | 180 | 8.0 | 11.3 | 0.00 | 0.00 | 0.00 | 48 | 1020.3 |
| 20260503150240 | 12 | 189 | 8.0 | 11.3 | 0.00 | 0.00 | 0.00 | 46 | 1020.2 |
| 20260503140205 | 11 | 235 | 1.6 | 3.2 | 0.00 | 0.00 | 0.00 | 59 | 1020.2 |
| 20260503131134 | 8 | 214 | 3.2 | 3.2 | 0.00 | 0.00 | 0.00 | 74 | 1020.4 |
| 20260503130632 | 8 | 241 | 3.2 | 3.2 | 0.00 | 0.00 | 0.00 | 77 | 1020.3 |
| 20260503130129 | 8 | 196 | 1.6 | 3.2 | 0.00 | 0.00 | 0.00 | 79 | 1020.2 |
| 20260503110522 | -2 | 271 | 0.0 | 0.0 | 0.00 | 0.00 | 0.00 | 99 | 1019.6 |
| 20260503090408 | -1 | 272 | 0.0 | 0.0 | 0.00 | 0.00 | 0.00 | 99 | 1019.5 |
| 20260503081335 | -1 | 272 | 0.0 | 0.0 | 0.00 | 0.00 | 0.00 | 99 | 1018.8 |
| 20260503080832 | -1 | 271 | 0.0 | 0.0 | 0.00 | 0.00 | 0.00 | 99 | 1018.9 |
| 20260503080329 | -1 | 271 | 0.0 | 0.0 | 0.00 | 0.00 | 0.00 | 99 | 1018.9 |
| 20260503072805 | -1 | 271 | 0.0 | 0.0 | 0.00 | 0.00 | 0.00 | 99 | 1018.7 |
| 20260503072305 | 0 | 272 | 0.0 | 0.0 | 0.00 | 0.00 | 0.00 | 99 | 1018.8 |
| 20260503071758 | -1 | 272 | 0.0 | 0.0 | 0.00 | 0.00 | 0.00 | 99 | 1018.6 |
| 20260503071255 | -1 | 272 | 0.0 | 0.0 | 0.00 | 0.00 | 0.00 | 99 | 1018.8 |
| 20260503070751 | -1 | 272 | 0.0 | 0.0 | 0.00 | 0.00 | 0.00 | 99 | 1018.8 |
| 20260503070250 | -1 | 272 | 0.0 | 0.0 | 0.00 | 0.00 | 0.00 | 99 | 1018.6 |
| 20260503060215 | 0 | 272 | 0.0 | 0.0 | 0.00 | 0.00 | 0.00 | 99 | 1019.1 |
| 20260503054702 | 0 | 272 | 0.0 | 0.0 | 0.00 | 0.00 | 0.00 | 98 | 1019.3 |
| 20260503054159 | 0 | 272 | 0.0 | 0.0 | 0.00 | 0.00 | 0.00 | 98 | 1019.1 |
| 20260503053657 | 0 | 272 | 0.0 | 0.0 | 0.00 | 0.00 | 0.00 | 98 | 1018.9 |
| 20260503053155 | 0 | 272 | 0.0 | 0.0 | 0.00 | 0.00 | 0.00 | 98 | 1019.0 |
| 20260503052651 | 0 | 272 | 0.0 | 0.0 | 0.00 | 0.00 | 0.00 | 98 | 1018.9 |
| 20260503052147 | 0 | 272 | 0.0 | 0.0 | 0.00 | 0.00 | 0.00 | 98 | 1018.8 |
| 20260503051643 | 0 | 272 | 0.0 | 0.0 | 0.00 | 0.00 | 0.00 | 98 | 1019.1 |
| 20260503051141 | 0 | 272 | 0.0 | 0.0 | 0.00 | 0.00 | 0.00 | 98 | 1018.8 |
| 20260503050638 | 0 | 272 | 0.0 | 0.0 | 0.00 | 0.00 | 0.00 | 98 | 1019.1 |
| 20260503050134 | 0 | 272 | 0.0 | 0.0 | 0.00 | 0.00 | 0.00 | 97 | 1018.9 |
| 20260503045632 | 0 | 272 | 0.0 | 0.0 | 0.00 | 0.00 | 0.00 | 97 | 1019.1 |
| 20260503045129 | 1 | 272 | 0.0 | 0.0 | 0.00 | 0.00 | 0.00 | 98 | 1018.8 |
| 20260503044625 | 1 | 272 | 0.0 | 0.0 | 0.00 | 0.00 | 0.00 | 97 | 1018.8 |
| 20260503044123 | 1 | 272 | 0.0 | 0.0 | 0.00 | 0.00 | 0.00 | 97 | 1019.0 |
| 20260503043620 | 1 | 272 | 0.0 | 0.0 | 0.00 | 0.00 | 0.00 | 97 | 1018.9 |
| 20260503043116 | 1 | 272 | 0.0 | 0.0 | 0.00 | 0.00 | 0.00 | 97 | 1018.8 |
| 20260503042613 | 1 | 272 | 0.0 | 0.0 | 0.00 | 0.00 | 0.00 | 97 | 1018.9 |
| 20260503042109 | 1 | 272 | 0.0 | 0.0 | 0.00 | 0.00 | 0.00 | 97 | 1019.0 |
| 20260503041605 | 1 | 272 | 0.0 | 0.0 | 0.00 | 0.00 | 0.00 | 97 | 1019.0 |
| 20260503041104 | 1 | 272 | 0.0 | 0.0 | 0.00 | 0.00 | 0.00 | 96 | 1018.8 |
| 20260503040601 | 1 | 272 | 0.0 | 0.0 | 0.00 | 0.00 | 0.00 | 96 | 1018.8 |
| 20260503040058 | 1 | 272 | 0.0 | 0.0 | 0.00 | 0.00 | 0.00 | 96 | 1019.0 |
| 20260503035554 | 2 | 272 | 0.0 | 0.0 | 0.00 | 0.00 | 0.00 | 96 | 1018.8 |
| 20260503035052 | 2 | 272 | 0.0 | 0.0 | 0.00 | 0.00 | 0.00 | 96 | 1019.0 |
| 20260503034549 | 2 | 272 | 0.0 | 0.0 | 0.00 | 0.00 | 0.00 | 96 | 1018.9 |
| 20260503034046 | 2 | 272 | 0.0 | 0.0 | 0.00 | 0.00 | 0.00 | 95 | 1018.9 |
| 20260503033543 | 2 | 272 | 0.0 | 0.0 | 0.00 | 0.00 | 0.00 | 95 | 1019.0 |
| 20260503033041 | 2 | 272 | 0.0 | 0.0 | 0.00 | 0.00 | 0.00 | 95 | 1018.8 |
| 20260503032539 | 2 | 272 | 0.0 | 0.0 | 0.00 | 0.00 | 0.00 | 95 | 1018.9 |
| 20260503032037 | 2 | 272 | 0.0 | 0.0 | 0.00 | 0.00 | 0.00 | 94 | 1019.0 |
| 20260503031535 | 3 | 272 | 0.0 | 0.0 | 0.00 | 0.00 | 0.00 | 94 | 1018.9 |
| 20260503031032 | 3 | 272 | 0.0 | 0.0 | 0.00 | 0.00 | 0.00 | 94 | 1019.0 |
| 20260503030527 | 3 | 272 | 0.0 | 0.0 | 0.00 | 0.00 | 0.00 | 94 | 1018.6 |
| 20260503030025 | 3 | 272 | 0.0 | 0.0 | 0.00 | 0.00 | 0.00 | 94 | 1018.8 |
| 20260503025521 | 3 | 272 | 0.0 | 0.0 | 0.00 | 0.00 | 0.00 | 94 | 1019.0 |
| 20260503025020 | 4 | 272 | 0.0 | 0.0 | 0.00 | 0.00 | 0.00 | 94 | 1018.8 |
| 20260503024515 | 4 | 272 | 0.0 | 0.0 | 0.00 | 0.00 | 0.00 | 94 | 1018.9 |
| 20260503024013 | 4 | 272 | 0.0 | 0.0 | 0.00 | 0.00 | 0.00 | 94 | 1018.7 |
| 20260503023509 | 4 | 272 | 0.0 | 0.0 | 0.00 | 0.00 | 0.00 | 93 | 1018.7 |
| 20260503023007 | 5 | 272 | 0.0 | 0.0 | 0.00 | 0.00 | 0.00 | 93 | 1018.5 |
| 20260503022502 | 5 | 272 | 0.0 | 0.0 | 0.00 | 0.00 | 0.00 | 93 | 1018.5 |
| 20260503021957 | 5 | 272 | 0.0 | 0.0 | 0.00 | 0.00 | 0.00 | 93 | 1018.4 |
| 20260503021454 | 5 | 272 | 0.0 | 0.0 | 0.00 | 0.00 | 0.00 | 93 | 1018.4 |
| 20260503020951 | 5 | 278 | 0.0 | 0.0 | 0.00 | 0.00 | 0.00 | 94 | 1018.5 |
| 20260503020449 | 5 | 288 | 0.0 | 0.0 | 0.00 | 0.00 | 0.00 | 94 | 1018.1 |
| 20260503015945 | 5 | 296 | 1.6 | 1.6 | 0.00 | 0.00 | 0.00 | 94 | 1018.0 |
| 20260503015442 | 4 | 279 | 0.0 | 0.0 | 0.00 | 0.00 | 0.00 | 93 | 1017.8 |
| 20260503014938 | 4 | 279 | 0.0 | 0.0 | 0.00 | 0.00 | 0.00 | 93 | 1018.1 |
| 20260503014435 | 4 | 279 | 0.0 | 0.0 | 0.00 | 0.00 | 0.00 | 93 | 1017.8 |
| 20260503013933 | 5 | 280 | 0.0 | 0.0 | 0.00 | 0.00 | 0.00 | 92 | 1017.6 |
| 20260503013430 | 4 | 279 | 0.0 | 0.0 | 0.00 | 0.00 | 0.00 | 91 | 1018.0 |
| 20260503012927 | 5 | 280 | 0.0 | 0.0 | 0.00 | 0.00 | 0.00 | 91 | 1017.6 |